User: anonymous   Login
Location: Владивосток
(43.1151°N, 131.8856°E)
Time: 09:31:00
(UTC+10:00)
Language:

PRISM - Orbit

View from above orbital plane
View from above orbital plane
View from above satellite
View from above satellite

Ground track
Ground track

The orbit data is extracted from the following two-line orbital elements,

1 33493U 09002B   24114.60688709  .00034081  00000-0  17437-2 0  9999
2 33493  98.2110 157.6295 0013783  79.5052 280.7731 15.16472813830760
Epoch (UTC): 23 April 2024 14:33:55
Eccentricity: 0.0013783
inclination: 98.2110°
perigee height: 507 km
apogee height: 526 km
right ascension of ascending node: 157.6295°
argument of perigee: 79.5052°
revolutions per day: 15.16472813
mean anomaly at epoch: 280.7731°
orbit number at epoch: 83076

The dashed part of the orbit path shows where the satellite is in the earth's shadow,  

DLR